| time (UTC) | temp C | wind direction | speed KPH | gust KPH | rain 1hr cm | rain 24hr cm | rain mn cm | humidity % | barometer mb |
| 20260506092243 | 17 | 225 | 3.2 | 11.3 | 0.00 | 0.56 | 0.00 | 71 | 1006.4 |
| 20260506091743 | 17 | 156 | 3.2 | 9.7 | 0.00 | 0.56 | 0.00 | 71 | 1006.4 |
| 20260506091241 | 17 | 219 | 8.0 | 9.7 | 0.00 | 0.56 | 0.00 | 71 | 1006.4 |
| 20260506090742 | 17 | 219 | 4.8 | 9.7 | 0.00 | 0.56 | 0.00 | 70 | 1006.3 |
| 20260506090241 | 17 | 236 | 6.4 | 12.9 | 0.00 | 0.56 | 0.00 | 71 | 1006.4 |
| 20260506085741 | 16 | 159 | 4.8 | 11.3 | 0.00 | 0.56 | 0.00 | 71 | 1006.3 |
| 20260506085241 | 16 | 160 | 6.4 | 9.7 | 0.00 | 0.56 | 0.00 | 70 | 1006.2 |
| 20260506084742 | 16 | 214 | 6.4 | 11.3 | 0.00 | 0.56 | 0.00 | 70 | 1006.3 |
| 20260506084241 | 16 | 299 | 4.8 | 11.3 | 0.00 | 0.56 | 0.00 | 73 | 1006.4 |
| 20260506083742 | 16 | 172 | 6.4 | 12.9 | 0.00 | 0.56 | 0.00 | 73 | 1006.3 |
| 20260506083242 | 16 | 154 | 6.4 | 11.3 | 0.00 | 0.56 | 0.00 | 73 | 1006.3 |
| 20260506082741 | 16 | 180 | 4.8 | 8.0 | 0.00 | 0.56 | 0.00 | 73 | 1006.3 |
| 20260506082241 | 16 | 159 | 4.8 | 9.7 | 0.00 | 0.56 | 0.00 | 73 | 1006.3 |
| 20260506081742 | 16 | 240 | 4.8 | 14.5 | 0.00 | 0.56 | 0.00 | 73 | 1006.3 |
| 20260506081242 | 16 | 166 | 6.4 | 14.5 | 0.00 | 0.56 | 0.00 | 72 | 1006.3 |
| 20260506080741 | 16 | 183 | 8.0 | 14.5 | 0.00 | 0.56 | 0.00 | 73 | 1006.3 |
| 20260506080242 | 16 | 223 | 1.6 | 11.3 | 0.00 | 0.56 | 0.00 | 74 | 1006.2 |
| 20260506073242 | 15 | 180 | 8.0 | 17.7 | 0.00 | 0.56 | 0.00 | 75 | 1006.3 |
| 20260506072741 | 15 | 217 | 9.7 | 16.1 | 0.00 | 0.56 | 0.00 | 76 | 1006.3 |
| 20260506072242 | 15 | 181 | 8.0 | 14.5 | 0.00 | 0.56 | 0.00 | 76 | 1006.3 |
| 20260506071742 | 15 | 217 | 6.4 | 12.9 | 0.00 | 0.56 | 0.00 | 76 | 1006.2 |
| 20260506071241 | 15 | 171 | 3.2 | 11.3 | 0.00 | 0.56 | 0.00 | 78 | 1006.2 |
| 20260506070741 | 15 | 210 | 4.8 | 11.3 | 0.00 | 0.56 | 0.00 | 77 | 1006.1 |
| 20260506070243 | 15 | 210 | 6.4 | 11.3 | 0.00 | 0.56 | 0.00 | 78 | 1006.1 |
| 20260506062242 | 13 | 163 | 4.8 | 8.0 | 0.00 | 0.61 | 0.00 | 82 | 1006.4 |
| 20260506061743 | 13 | 198 | 4.8 | 8.0 | 0.00 | 0.61 | 0.00 | 82 | 1006.3 |
| 20260506061243 | 13 | 135 | 1.6 | 6.4 | 0.00 | 0.61 | 0.00 | 84 | 1006.3 |
| 20260506060742 | 13 | 229 | 0.0 | 6.4 | 0.00 | 0.61 | 0.00 | 85 | 1006.3 |
| 20260506060243 | 13 | 157 | 1.6 | 4.8 | 0.00 | 0.61 | 0.00 | 86 | 1006.3 |
| 20260506051241 | 10 | 62 | 0.0 | 0.0 | 0.00 | 0.61 | 0.00 | 89 | 1006.4 |
| 20260506050742 | 9 | 62 | 0.0 | 1.6 | 0.00 | 0.61 | 0.00 | 89 | 1006.5 |
| 20260506050242 | 9 | 63 | 1.6 | 1.6 | 0.00 | 0.61 | 0.00 | 89 | 1006.6 |
| 20260506044742 | 9 | 5 | 0.0 | 1.6 | 0.00 | 0.61 | 0.00 | 88 | 1006.5 |
| 20260506044243 | 9 | 45 | 0.0 | 1.6 | 0.00 | 0.61 | 0.00 | 88 | 1006.5 |
| 20260506043742 | 9 | 47 | 1.6 | 3.2 | 0.00 | 0.61 | 0.00 | 87 | 1006.5 |
| 20260506043242 | 9 | 316 | 1.6 | 3.2 | 0.00 | 0.61 | 0.00 | 87 | 1006.6 |
| 20260506042743 | 9 | 46 | 0.0 | 1.6 | 0.00 | 0.61 | 0.00 | 87 | 1006.7 |
| 20260506042242 | 9 | 111 | 0.0 | 0.0 | 0.00 | 0.61 | 0.00 | 86 | 1006.7 |
| 20260506041742 | 9 | 109 | 0.0 | 0.0 | 0.00 | 0.61 | 0.00 | 86 | 1006.7 |
| 20260506041241 | 9 | 105 | 0.0 | 1.6 | 0.00 | 0.61 | 0.00 | 86 | 1006.7 |
| 20260506040742 | 9 | 113 | 0.0 | 1.6 | 0.00 | 0.61 | 0.00 | 86 | 1006.6 |
| 20260506040241 | 10 | 190 | 0.0 | 0.0 | 0.00 | 0.61 | 0.00 | 86 | 1006.7 |
| 20260506035741 | 10 | 219 | 0.0 | 1.6 | 0.00 | 0.61 | 0.00 | 86 | 1006.7 |
| 20260506035243 | 10 | 209 | 0.0 | 3.2 | 0.00 | 0.61 | 0.00 | 86 | 1006.6 |
| 20260506034741 | 10 | 172 | 1.6 | 1.6 | 0.00 | 0.61 | 0.00 | 85 | 1006.7 |
| 20260506034242 | 10 | 167 | 0.0 | 0.0 | 0.00 | 0.61 | 0.00 | 85 | 1006.6 |
| 20260506033742 | 10 | 167 | 0.0 | 3.2 | 0.00 | 0.61 | 0.00 | 85 | 1006.7 |
| 20260506033242 | 10 | 150 | 0.0 | 3.2 | 0.00 | 0.61 | 0.00 | 85 | 1006.7 |
| 20260506032741 | 10 | 159 | 0.0 | 3.2 | 0.00 | 0.61 | 0.00 | 84 | 1006.8 |
| 20260506032241 | 10 | 40 | 0.0 | 1.6 | 0.00 | 0.61 | 0.00 | 84 | 1006.8 |
| 20260506031518 | 11 | 34 | 1.6 | 1.6 | 0.00 | 0.61 | 0.00 | 83 | 1006.8 |
| 20260506031017 | 11 | 360 | 1.6 | 1.6 | 0.00 | 0.61 | 0.00 | 83 | 1006.8 |
| 20260506030517 | 11 | 347 | 1.6 | 4.8 | 0.00 | 0.61 | 0.00 | 82 | 1006.8 |
| 20260506030017 | 11 | 57 | 0.0 | 1.6 | 0.00 | 0.61 | 0.00 | 81 | 1006.8 |
| 20260506025517 | 11 | 113 | 0.0 | 1.6 | 0.00 | 0.61 | 0.00 | 81 | 1006.9 |
| 20260506025018 | 12 | 114 | 1.6 | 1.6 | 0.00 | 0.61 | 0.00 | 81 | 1006.9 |
| 20260506024518 | 12 | 109 | 0.0 | 1.6 | 0.00 | 0.61 | 0.00 | 81 | 1007.0 |
| 20260506024017 | 12 | 109 | 1.6 | 3.2 | 0.00 | 0.61 | 0.00 | 80 | 1007.1 |
| 20260506023518 | 12 | 135 | 0.0 | 3.2 | 0.00 | 0.61 | 0.00 | 81 | 1007.2 |
| 20260506023019 | 12 | 257 | 3.2 | 4.8 | 0.00 | 0.61 | 0.00 | 80 | 1007.3 |
| 20260506022518 | 13 | 239 | 3.2 | 6.4 | 0.00 | 0.61 | 0.00 | 80 | 1007.3 |
| 20260506022018 | 13 | 246 | 3.2 | 8.0 | 0.00 | 0.61 | 0.00 | 80 | 1007.3 |
| 20260506021518 | 13 | 232 | 1.6 | 4.8 | 0.00 | 0.61 | 0.00 | 80 | 1007.3 |
| 20260506021018 | 13 | 232 | 3.2 | 9.7 | 0.00 | 0.61 | 0.00 | 80 | 1007.3 |
| 20260506020519 | 13 | 190 | 3.2 | 9.7 | 0.00 | 0.61 | 0.00 | 81 | 1007.4 |
| 20260506020017 | 13 | 190 | 8.0 | 11.3 | 0.00 | 0.61 | 0.00 | 81 | 1007.4 |
| 20260506015519 | 12 | 206 | 3.2 | 9.7 | 0.00 | 0.61 | 0.00 | 82 | 1007.4 |
| 20260506015018 | 12 | 185 | 1.6 | 4.8 | 0.00 | 0.61 | 0.00 | 83 | 1007.5 |
| 20260506014518 | 12 | 167 | 3.2 | 8.0 | 0.00 | 0.61 | 0.00 | 83 | 1007.5 |
| 20260506014017 | 12 | 188 | 3.2 | 6.4 | 0.00 | 0.61 | 0.00 | 84 | 1007.5 |
| 20260506013518 | 12 | 180 | 3.2 | 4.8 | 0.00 | 0.61 | 0.00 | 84 | 1007.4 |
| 20260506013019 | 12 | 122 | 3.2 | 6.4 | 0.00 | 0.61 | 0.00 | 84 | 1007.5 |
| 20260506012517 | 12 | 165 | 3.2 | 4.8 | 0.00 | 0.61 | 0.00 | 84 | 1007.5 |
| 20260506012019 | 12 | 181 | 1.6 | 6.4 | 0.00 | 0.61 | 0.00 | 84 | 1007.5 |
| 20260506011519 | 12 | 178 | 1.6 | 4.8 | 0.00 | 0.61 | 0.00 | 84 | 1007.4 |
| 20260506011018 | 12 | 178 | 0.0 | 3.2 | 0.00 | 0.61 | 0.00 | 84 | 1007.5 |
| 20260506010517 | 12 | 171 | 0.0 | 3.2 | 0.00 | 0.61 | 0.00 | 84 | 1007.5 |
| 20260506010017 | 12 | 170 | 0.0 | 3.2 | 0.00 | 0.61 | 0.00 | 83 | 1007.5 |
| 20260506005517 | 12 | 158 | 0.0 | 0.0 | 0.00 | 0.61 | 0.00 | 83 | 1007.5 |
| 20260506005017 | 12 | 158 | 0.0 | 1.6 | 0.00 | 0.61 | 0.00 | 83 | 1007.5 |
| 20260506004517 | 13 | 161 | 0.0 | 3.2 | 0.00 | 0.61 | 0.00 | 83 | 1007.5 |
| 20260506004018 | 13 | 166 | 3.2 | 4.8 | 0.00 | 0.61 | 0.00 | 83 | 1007.6 |
| 20260506003517 | 13 | 148 | 3.2 | 6.4 | 0.00 | 0.61 | 0.00 | 83 | 1007.7 |
| 20260506003017 | 13 | 163 | 3.2 | 8.0 | 0.00 | 0.61 | 0.00 | 83 | 1007.7 |
| 20260506002518 | 13 | 201 | 3.2 | 6.4 | 0.00 | 0.61 | 0.00 | 83 | 1007.7 |
| 20260506002018 | 13 | 175 | 1.6 | 4.8 | 0.00 | 0.61 | 0.00 | 83 | 1007.8 |
| 20260506001517 | 13 | 192 | 1.6 | 4.8 | 0.00 | 0.61 | 0.00 | 83 | 1007.9 |
| 20260506001017 | 13 | 153 | 1.6 | 8.0 | 0.00 | 0.61 | 0.00 | 83 | 1008.0 |
| 20260506000517 | 13 | 152 | 3.2 | 6.4 | 0.00 | 0.61 | 0.00 | 84 | 1008.2 |
| 20260506000017 | 13 | 177 | 3.2 | 6.4 | 0.00 | 0.61 | 0.00 | 84 | 1008.2 |
| 20260505235517 | 13 | 174 | 3.2 | 8.0 | 0.00 | 0.61 | 0.00 | 84 | 1008.3 |
| 20260505235017 | 12 | 188 | 4.8 | 8.0 | 0.00 | 0.61 | 0.00 | 84 | 1008.3 |
| 20260505234519 | 12 | 184 | 3.2 | 11.3 | 0.00 | 0.61 | 0.00 | 85 | 1008.3 |
| 20260505234018 | 12 | 236 | 3.2 | 4.8 | 0.00 | 0.61 | 0.00 | 84 | 1008.3 |
| 20260505233519 | 12 | 194 | 1.6 | 4.8 | 0.00 | 0.61 | 0.00 | 84 | 1008.1 |
| 20260505233019 | 12 | 184 | 1.6 | 3.2 | 0.00 | 0.61 | 0.00 | 85 | 1008.0 |
| 20260505232518 | 12 | 157 | 3.2 | 6.4 | 0.00 | 0.61 | 0.00 | 85 | 1008.0 |
| 20260505232019 | 13 | 153 | 3.2 | 6.4 | 0.00 | 0.61 | 0.00 | 84 | 1008.1 |
| 20260505231518 | 13 | 174 | 1.6 | 4.8 | 0.00 | 0.61 | 0.00 | 84 | 1008.1 |
| 20260505231019 | 13 | 192 | 0.0 | 4.8 | 0.00 | 0.61 | 0.00 | 84 | 1008.2 |
| 20260505230519 | 13 | 148 | 0.0 | 4.8 | 0.00 | 0.61 | 0.00 | 84 | 1008.2 |
| 20260505230017 | 13 | 172 | 1.6 | 4.8 | 0.00 | 0.61 | 0.00 | 84 | 1008.2 |
| 20260505225518 | 13 | 160 | 1.6 | 6.4 | 0.00 | 0.61 | 0.00 | 84 | 1008.3 |
| 20260505225018 | 13 | 142 | 3.2 | 4.8 | 0.00 | 0.61 | 0.00 | 84 | 1008.4 |
| 20260505224518 | 13 | 160 | 1.6 | 4.8 | 0.00 | 0.61 | 0.00 | 84 | 1008.4 |
| 20260505224019 | 13 | 155 | 3.2 | 6.4 | 0.00 | 0.61 | 0.00 | 84 | 1008.5 |
| 20260505223518 | 13 | 217 | 4.8 | 11.3 | 0.00 | 0.61 | 0.00 | 84 | 1008.6 |
| 20260505223018 | 13 | 165 | 4.8 | 11.3 | 0.00 | 0.61 | 0.00 | 84 | 1008.7 |
| 20260505222517 | 13 | 195 | 3.2 | 8.0 | 0.00 | 0.61 | 0.00 | 84 | 1008.7 |
| 20260505222018 | 13 | 177 | 3.2 | 9.7 | 0.00 | 0.61 | 0.00 | 85 | 1008.5 |
| 20260505221518 | 13 | 182 | 4.8 | 9.7 | 0.00 | 0.61 | 0.00 | 85 | 1008.5 |
| 20260505221017 | 13 | 175 | 9.7 | 17.7 | 0.00 | 0.61 | 0.00 | 85 | 1008.5 |
| 20260505220517 | 13 | 162 | 4.8 | 11.3 | 0.00 | 0.61 | 0.00 | 85 | 1008.4 |
| 20260505220018 | 13 | 182 | 4.8 | 11.3 | 0.00 | 0.61 | 0.00 | 85 | 1008.5 |
| 20260505215518 | 13 | 193 | 4.8 | 9.7 | 0.00 | 0.61 | 0.61 | 85 | 1008.4 |
| 20260505215018 | 13 | 167 | 4.8 | 9.7 | 0.00 | 0.61 | 0.61 | 85 | 1008.4 |
| 20260505214518 | 13 | 211 | 4.8 | 8.0 | 0.00 | 0.61 | 0.61 | 85 | 1008.3 |
| 20260505214018 | 13 | 166 | 8.0 | 12.9 | 0.00 | 0.61 | 0.61 | 85 | 1008.4 |
| 20260505213518 | 13 | 192 | 8.0 | 12.9 | 0.00 | 0.61 | 0.61 | 85 | 1008.4 |
| 20260505213018 | 13 | 193 | 8.0 | 16.1 | 0.00 | 0.61 | 0.61 | 85 | 1008.4 |
| 20260505212517 | 13 | 200 | 3.2 | 11.3 | 0.00 | 0.61 | 0.61 | 85 | 1008.4 |
| 20260505212018 | 13 | 205 | 1.6 | 6.4 | 0.00 | 0.61 | 0.61 | 85 | 1008.4 |
| 20260505211518 | 13 | 171 | 1.6 | 6.4 | 0.00 | 0.61 | 0.61 | 85 | 1008.3 |
| 20260505211017 | 13 | 143 | 3.2 | 6.4 | 0.00 | 0.61 | 0.61 | 85 | 1008.4 |
| 20260505210518 | 13 | 177 | 3.2 | 6.4 | 0.00 | 0.61 | 0.61 | 85 | 1008.4 |
| 20260505210019 | 13 | 176 | 3.2 | 8.0 | 0.00 | 0.61 | 0.61 | 85 | 1008.4 |
| 20260505205518 | 13 | 161 | 3.2 | 6.4 | 0.00 | 0.61 | 0.61 | 84 | 1008.4 |
| 20260505205019 | 13 | 171 | 4.8 | 8.0 | 0.00 | 0.61 | 0.61 | 85 | 1008.3 |
| 20260505204517 | 13 | 138 | 4.8 | 11.3 | 0.00 | 0.61 | 0.61 | 85 | 1008.3 |
| 20260505204019 | 13 | 155 | 6.4 | 11.3 | 0.00 | 0.61 | 0.61 | 85 | 1008.3 |
| 20260505203519 | 13 | 196 | 6.4 | 12.9 | 0.00 | 0.61 | 0.61 | 85 | 1008.3 |
| 20260505203017 | 13 | 206 | 6.4 | 12.9 | 0.00 | 0.61 | 0.61 | 85 | 1008.3 |
| 20260505202518 | 14 | 227 | 6.4 | 14.5 | 0.00 | 0.61 | 0.61 | 84 | 1008.2 |
| 20260505202017 | 14 | 159 | 6.4 | 9.7 | 0.00 | 0.61 | 0.61 | 85 | 1008.2 |
| 20260505201517 | 14 | 159 | 4.8 | 8.0 | 0.00 | 0.61 | 0.61 | 85 | 1008.1 |
| 20260505201018 | 14 | 171 | 6.4 | 9.7 | 0.00 | 0.61 | 0.61 | 84 | 1008.2 |
| 20260505200517 | 14 | 175 | 4.8 | 9.7 | 0.00 | 0.61 | 0.61 | 84 | 1008.1 |
| 20260505200018 | 14 | 188 | 6.4 | 11.3 | 0.00 | 0.61 | 0.61 | 84 | 1008.1 |
| 20260505195517 | 14 | 203 | 8.0 | 12.9 | 0.00 | 0.61 | 0.61 | 85 | 1008.0 |
| 20260505195017 | 14 | 165 | 4.8 | 11.3 | 0.00 | 0.61 | 0.61 | 85 | 1008.1 |
| 20260505194518 | 14 | 177 | 6.4 | 12.9 | 0.00 | 0.61 | 0.61 | 85 | 1008.0 |
| 20260505194018 | 14 | 199 | 4.8 | 12.9 | 0.00 | 0.61 | 0.61 | 85 | 1008.0 |
| 20260505193518 | 14 | 220 | 3.2 | 16.1 | 0.00 | 0.61 | 0.61 | 86 | 1008.0 |
| 20260505193018 | 14 | 165 | 4.8 | 9.7 | 0.00 | 0.61 | 0.61 | 86 | 1007.9 |
| 20260505192517 | 14 | 171 | 4.8 | 11.3 | 0.00 | 0.61 | 0.61 | 86 | 1007.9 |
| 20260505192018 | 14 | 155 | 8.0 | 11.3 | 0.00 | 0.61 | 0.61 | 87 | 1007.8 |
| 20260505191519 | 14 | 183 | 4.8 | 8.0 | 0.00 | 0.61 | 0.61 | 87 | 1007.8 |
| 20260505191018 | 14 | 189 | 4.8 | 6.4 | 0.00 | 0.61 | 0.61 | 87 | 1007.6 |
| 20260505190518 | 14 | 164 | 3.2 | 4.8 | 0.00 | 0.61 | 0.61 | 87 | 1007.6 |
| 20260505190018 | 14 | 165 | 1.6 | 4.8 | 0.00 | 0.61 | 0.61 | 87 | 1007.6 |
| 20260505185519 | 14 | 165 | 1.6 | 3.2 | 0.00 | 0.64 | 0.61 | 87 | 1007.6 |
| 20260505185017 | 14 | 150 | 3.2 | 4.8 | 0.00 | 0.64 | 0.61 | 86 | 1007.6 |
| 20260505184517 | 14 | 147 | 1.6 | 3.2 | 0.00 | 0.64 | 0.61 | 86 | 1007.6 |
| 20260505184019 | 14 | 179 | 0.0 | 4.8 | 0.00 | 0.64 | 0.61 | 86 | 1007.6 |
| 20260505183517 | 14 | 199 | 3.2 | 6.4 | 0.00 | 0.64 | 0.61 | 86 | 1007.6 |
| 20260505183018 | 14 | 184 | 3.2 | 6.4 | 0.00 | 0.64 | 0.61 | 86 | 1007.6 |
| 20260505182517 | 14 | 160 | 4.8 | 8.0 | 0.00 | 0.64 | 0.61 | 87 | 1007.5 |
| 20260505182017 | 14 | 172 | 3.2 | 6.4 | 0.00 | 0.64 | 0.61 | 87 | 1007.4 |
| 20260505181517 | 14 | 169 | 1.6 | 4.8 | 0.00 | 0.64 | 0.61 | 87 | 1007.3 |
| 20260505181017 | 14 | 182 | 0.0 | 4.8 | 0.00 | 0.64 | 0.61 | 87 | 1007.2 |
| 20260505180517 | 14 | 144 | 1.6 | 4.8 | 0.00 | 0.64 | 0.61 | 86 | 1007.3 |
| 20260505180017 | 15 | 183 | 1.6 | 3.2 | 0.00 | 0.64 | 0.61 | 86 | 1007.4 |
| 20260505175518 | 15 | 171 | 0.0 | 6.4 | 0.00 | 0.64 | 0.61 | 86 | 1007.3 |
| 20260505175017 | 15 | 188 | 3.2 | 11.3 | 0.00 | 0.64 | 0.61 | 86 | 1007.3 |
| 20260505174518 | 15 | 184 | 4.8 | 6.4 | 0.00 | 0.64 | 0.61 | 87 | 1007.4 |
| 20260505174017 | 15 | 186 | 3.2 | 6.4 | 0.00 | 0.64 | 0.61 | 87 | 1007.4 |
| 20260505173519 | 15 | 244 | 3.2 | 6.4 | 0.00 | 0.64 | 0.61 | 87 | 1007.4 |
| 20260505173019 | 15 | 212 | 3.2 | 4.8 | 0.00 | 0.64 | 0.61 | 87 | 1007.5 |
| 20260505172519 | 14 | 190 | 4.8 | 8.0 | 0.00 | 0.64 | 0.61 | 87 | 1007.5 |
| 20260505172018 | 14 | 241 | 3.2 | 9.7 | 0.00 | 0.64 | 0.61 | 87 | 1007.5 |
| 20260505171518 | 14 | 198 | 3.2 | 11.3 | 0.00 | 0.64 | 0.61 | 87 | 1007.5 |
| 20260505171017 | 14 | 188 | 1.6 | 6.4 | 0.00 | 0.64 | 0.61 | 87 | 1007.5 |
| 20260505170517 | 14 | 169 | 3.2 | 12.9 | 0.00 | 0.64 | 0.61 | 87 | 1007.5 |
| 20260505170017 | 14 | 175 | 3.2 | 9.7 | 0.03 | 0.64 | 0.61 | 87 | 1007.5 |
| 20260505165517 | 14 | 207 | 1.6 | 9.7 | 0.03 | 0.64 | 0.61 | 87 | 1007.5 |
| 20260505165018 | 14 | 120 | 4.8 | 9.7 | 0.05 | 0.64 | 0.61 | 87 | 1007.3 |
| 20260505164518 | 14 | 169 | 3.2 | 9.7 | 0.05 | 0.64 | 0.61 | 87 | 1007.4 |
| 20260505164017 | 14 | 185 | 4.8 | 11.3 | 0.23 | 0.64 | 0.61 | 87 | 1007.5 |
| 20260505163518 | 14 | 182 | 6.4 | 12.9 | 0.43 | 0.64 | 0.61 | 86 | 1007.4 |
| 20260505163017 | 15 | 186 | 8.0 | 14.5 | 0.53 | 0.64 | 0.61 | 86 | 1007.5 |
| 20260505162517 | 15 | 217 | 8.0 | 14.5 | 0.56 | 0.64 | 0.61 | 87 | 1007.5 |
| 20260505162017 | 15 | 203 | 3.2 | 11.3 | 0.56 | 0.64 | 0.61 | 87 | 1007.5 |
| 20260505161519 | 15 | 175 | 6.4 | 11.3 | 0.56 | 0.64 | 0.61 | 86 | 1007.3 |
| 20260505161017 | 15 | 199 | 4.8 | 11.3 | 0.56 | 0.64 | 0.61 | 86 | 1007.4 |
| 20260505160518 | 15 | 230 | 8.0 | 12.9 | 0.56 | 0.64 | 0.61 | 85 | 1007.4 |
| 20260505153018 | 18 | 5 | 3.2 | 4.8 | 0.03 | 0.10 | 0.08 | 76 | 1007.0 |
| 20260505152517 | 18 | 321 | 1.6 | 4.8 | 0.00 | 0.08 | 0.05 | 73 | 1007.1 |
| 20260505152018 | 18 | 16 | 1.6 | 3.2 | 0.00 | 0.08 | 0.05 | 72 | 1007.0 |
| 20260505151518 | 18 | 5 | 1.6 | 6.4 | 0.00 | 0.08 | 0.05 | 71 | 1007.0 |
| 20260505151017 | 18 | 17 | 1.6 | 8.0 | 0.00 | 0.08 | 0.05 | 73 | 1007.0 |
| 20260505150517 | 18 | 63 | 1.6 | 6.4 | 0.00 | 0.08 | 0.05 | 72 | 1007.0 |
| 20260505140518 | 19 | 83 | 1.6 | 4.8 | 0.00 | 0.08 | 0.05 | 71 | 1007.2 |
| 20260505125017 | 17 | 355 | 1.6 | 6.4 | 0.00 | 0.08 | 0.05 | 80 | 1008.0 |
| 20260505124518 | 17 | 308 | 1.6 | 4.8 | 0.00 | 0.08 | 0.05 | 80 | 1008.0 |
| 20260505124017 | 17 | 135 | 4.8 | 8.0 | 0.00 | 0.08 | 0.05 | 78 | 1008.1 |
| 20260505123517 | 17 | 344 | 0.0 | 4.8 | 0.00 | 0.08 | 0.05 | 80 | 1008.1 |
| 20260505123017 | 17 | 355 | 1.6 | 4.8 | 0.00 | 0.08 | 0.05 | 82 | 1008.1 |
| 20260505122518 | 17 | 279 | 1.6 | 4.8 | 0.00 | 0.08 | 0.05 | 80 | 1008.1 |
| 20260505122017 | 16 | 279 | 0.0 | 6.4 | 0.00 | 0.08 | 0.05 | 81 | 1008.1 |
| 20260505121518 | 17 | 56 | 1.6 | 4.8 | 0.00 | 0.08 | 0.05 | 80 | 1008.2 |
| 20260505121018 | 17 | 9 | 1.6 | 4.8 | 0.00 | 0.08 | 0.05 | 81 | 1008.3 |
| 20260505120518 | 17 | 285 | 3.2 | 8.0 | 0.00 | 0.08 | 0.05 | 82 | 1008.4 |
| 20260505120018 | 17 | 29 | 4.8 | 8.0 | 0.00 | 0.08 | 0.05 | 82 | 1008.4 |
| 20260505115518 | 16 | 355 | 0.0 | 8.0 | 0.00 | 0.08 | 0.05 | 82 | 1008.4 |
| 20260505115017 | 16 | 281 | 3.2 | 6.4 | 0.00 | 0.08 | 0.05 | 82 | 1008.4 |
| 20260505114518 | 16 | 327 | 1.6 | 6.4 | 0.00 | 0.08 | 0.05 | 83 | 1008.4 |
| 20260505114017 | 16 | 273 | 1.6 | 3.2 | 0.00 | 0.08 | 0.05 | 83 | 1008.5 |
| 20260505113519 | 16 | 51 | 1.6 | 6.4 | 0.00 | 0.08 | 0.05 | 82 | 1008.5 |
| 20260505113017 | 16 | 303 | 1.6 | 4.8 | 0.00 | 0.08 | 0.05 | 82 | 1008.6 |
| 20260505112518 | 16 | 327 | 1.6 | 4.8 | 0.00 | 0.08 | 0.05 | 82 | 1008.6 |
| 20260505112018 | 16 | 286 | 0.0 | 4.8 | 0.00 | 0.08 | 0.05 | 83 | 1008.6 |
| 20260505111517 | 16 | 273 | 0.0 | 3.2 | 0.00 | 0.08 | 0.05 | 83 | 1008.6 |
| 20260505111019 | 16 | 317 | 1.6 | 4.8 | 0.00 | 0.08 | 0.05 | 83 | 1008.7 |
| 20260505110517 | 16 | 300 | 1.6 | 4.8 | 0.00 | 0.08 | 0.05 | 82 | 1008.6 |
| 20260505102018 | 17 | 333 | 1.6 | 3.2 | 0.00 | 0.08 | 0.05 | 79 | 1008.8 |
| 20260505101519 | 16 | 290 | 1.6 | 6.4 | 0.00 | 0.08 | 0.05 | 78 | 1008.8 |
| 20260505101017 | 17 | 314 | 1.6 | 4.8 | 0.00 | 0.08 | 0.05 | 78 | 1008.7 |
| 20260505100519 | 17 | 343 | 4.8 | 6.4 | 0.00 | 0.08 | 0.05 | 78 | 1008.7 |
| 20260505100019 | 17 | 307 | 3.2 | 8.0 | 0.00 | 0.08 | 0.05 | 77 | 1008.7 |
| 20260505095518 | 17 | 355 | 1.6 | 4.8 | 0.00 | 0.08 | 0.05 | 77 | 1008.7 |
| 20260505095019 | 17 | 273 | 3.2 | 4.8 | 0.00 | 0.08 | 0.05 | 78 | 1008.8 |
| 20260505094517 | 17 | 290 | 3.2 | 8.0 | 0.00 | 0.08 | 0.05 | 76 | 1008.8 |
| 20260505094019 | 17 | 233 | 6.4 | 9.7 | 0.00 | 0.08 | 0.05 | 78 | 1008.9 |
| 20260505093518 | 16 | 252 | 1.6 | 4.8 | 0.00 | 0.08 | 0.05 | 78 | 1008.9 |
| 20260505093017 | 16 | 232 | 1.6 | 3.2 | 0.00 | 0.08 | 0.05 | 78 | 1009.0 |
| 20260505092517 | 16 | 234 | 1.6 | 4.8 | 0.00 | 0.08 | 0.05 | 78 | 1009.0 |